When you browse on this site, cookies collect data to enhance your experience and personalize the content and advertising you see.
Visit our Privacy Policy to learn more. By continuing to use the site, you agree to this use of cookies and data.
  • In United Kingdom
  • List of Countries
  • For 7 days
  • Water Temperature
  • Weather Map
  • Weather Widgets
  • user-avatar
    Login

    Hourly Weather Boa Vista

    Today, 20 September, Friday

    Time Temperature Precipitation Wind Pressure Humidity
    00:00 +28°C° 0 mm 1 mps 751 mmHg 74%
    01:00 +26°C° 0 mm 0 mps 750 mmHg 75%
    02:00 +26°C° 0 mm 0 mps 750 mmHg 76%
    03:00 +25°C° 0 mm 0 mps 750 mmHg 77%
    04:00 +27°C° 0 mm 1 mps 750 mmHg 77%
    05:00 +27°C° 0 mm 1 mps 750 mmHg 78%
    06:00 +28°C° 0 mm 2 mps 751 mmHg 74%
    07:00 +30°C° 0 mm 2 mps 752 mmHg 70%
    08:00 +31°C° 0 mm 2 mps 753 mmHg 67%
    09:00 +34°C° 0 mm 3 mps 753 mmHg 62%
    10:00 +35°C° 0 mm 4 mps 753 mmHg 56%
    11:00 +37°C° 0 mm 4 mps 752 mmHg 51%
    12:00 +37°C° 0 mm 4 mps 752 mmHg 49%
    13:00 +38°C° 0 mm 3 mps 751 mmHg 46%
    14:00 +38°C° 0 mm 3 mps 750 mmHg 44%
    15:00 +38°C° 0 mm 2 mps 750 mmHg 47%
    16:00 +37°C° 0 mm 2 mps 750 mmHg 49%
    17:00 +36°C° 0 mm 1 mps 750 mmHg 52%
    18:00 +34°C° 0 mm 1 mps 750 mmHg 55%
    19:00 +33°C° 0 mm 1 mps 750 mmHg 58%
    20:00 +32°C° 0 mm 1 mps 751 mmHg 61%
    21:00 +31°C° 0 mm 1 mps 751 mmHg 63%
    22:00 +30°C° 0 mm 2 mps 751 mmHg 64%
    23:00 +30°C° 0 mm 2 mps 751 mmHg 66%

    Tomorrow, 21 September, Saturday

    Time Temperature Precipitation Wind Pressure Humidity
    00:00 +29°C° 0 mm 2 mps 751 mmHg 67%
    01:00 +29°C° 0 mm 2 mps 750 mmHg 69%
    02:00 +29°C° 0 mm 2 mps 750 mmHg 71%
    03:00 +28°C° 0 mm 2 mps 750 mmHg 73%
    04:00 +28°C° 0 mm 2 mps 750 mmHg 74%
    05:00 +28°C° 0 mm 2 mps 751 mmHg 76%
    06:00 +28°C° 0 mm 3 mps 751 mmHg 72%
    07:00 +29°C° 0 mm 4 mps 752 mmHg 68%
    08:00 +30°C° 0 mm 5 mps 753 mmHg 65%
    09:00 +33°C° 0 mm 5 mps 753 mmHg 59%
    10:00 +35°C° 0 mm 5 mps 752 mmHg 53%
    11:00 +36°C° 0 mm 5 mps 752 mmHg 48%
    12:00 +37°C° 0 mm 4 mps 752 mmHg 45%
    13:00 +38°C° 0 mm 3 mps 751 mmHg 43%
    14:00 +39°C° 0 mm 2 mps 750 mmHg 41%
    15:00 +38°C° 0 mm 2 mps 750 mmHg 43%
    16:00 +37°C° 0 mm 2 mps 750 mmHg 46%
    17:00 +36°C° 0 mm 1 mps 749 mmHg 49%
    18:00 +34°C° 0 mm 1 mps 749 mmHg 54%
    19:00 +32°C° 0 mm 2 mps 750 mmHg 58%
    20:00 +31°C° 0 mm 2 mps 750 mmHg 63%
    21:00 +30°C° 0 mm 1 mps 750 mmHg 65%
    22:00 +30°C° 0 mm 1 mps 750 mmHg 66%
    23:00 +29°C° 0 mm 1 mps 751 mmHg 68%

    Day after tomorrow, 22 September, Sunday

    Time Temperature Precipitation Wind Pressure Humidity
    00:00 +29°C° 0.3 mm 1 mps 750 mmHg 71%
    01:00 +28°C° 0.3 mm 1 mps 750 mmHg 74%
    02:00 +28°C° 0.3 mm 1 mps 750 mmHg 78%
    03:00 +27°C° 0.5 mm 1 mps 750 mmHg 81%
    04:00 +27°C° 0.5 mm 1 mps 751 mmHg 85%
    05:00 +26°C° 0.5 mm 1 mps 751 mmHg 89%
    06:00 +27°C° 0.2 mm 2 mps 752 mmHg 87%
    07:00 +27°C° 0.2 mm 2 mps 753 mmHg 86%
    08:00 +28°C° 0.2 mm 3 mps 753 mmHg 85%
    09:00 +30°C° 0 mm 3 mps 753 mmHg 76%
    10:00 +33°C° 0 mm 3 mps 753 mmHg 67%
    11:00 +35°C° 0 mm 3 mps 753 mmHg 58%
    12:00 +36°C° 0 mm 2 mps 752 mmHg 54%
    13:00 +37°C° 0 mm 2 mps 751 mmHg 51%
    14:00 +38°C° 0 mm 2 mps 750 mmHg 47%
    15:00 +37°C° 0 mm 2 mps 750 mmHg 49%
    16:00 +37°C° 0 mm 2 mps 750 mmHg 52%
    17:00 +36°C° 0 mm 2 mps 749 mmHg 54%
    18:00 +34°C° 0.6 mm 2 mps 750 mmHg 63%
    19:00 +30°C° 0.6 mm 3 mps 750 mmHg 72%
    20:00 +28°C° 0.6 mm 4 mps 750 mmHg 81%
    21:00 +28°C° 0.5 mm 3 mps 751 mmHg 82%
    22:00 +27°C° 0.5 mm 2 mps 751 mmHg 83%
    23:00 +27°C° 0.5 mm 1 mps 752 mmHg 84%

    23 September, Monday

    Time Temperature Precipitation Wind Pressure Humidity
    00:00 +27°C° 0.8 mm 2 mps 752 mmHg 85%
    01:00 +27°C° 0.8 mm 2 mps 751 mmHg 86%
    02:00 +27°C° 0.8 mm 2 mps 751 mmHg 88%
    03:00 +26°C° 0.4 mm 1 mps 751 mmHg 88%
    04:00 +26°C° 0.4 mm 1 mps 751 mmHg 89%
    05:00 +26°C° 0.4 mm 1 mps 752 mmHg 89%
    06:00 +27°C° 0 mm 1 mps 752 mmHg 86%
    07:00 +28°C° 0 mm 1 mps 753 mmHg 83%
    08:00 +29°C° 0 mm 1 mps 754 mmHg 80%
    09:00 +30°C° 1.4 mm 3 mps 753 mmHg 75%
    10:00 +33°C° 1.4 mm 4 mps 753 mmHg 69%
    11:00 +34°C° 1.4 mm 5 mps 753 mmHg 63%
    12:00 +34°C° 1.6 mm 4 mps 752 mmHg 62%
    13:00 +35°C° 1.6 mm 3 mps 752 mmHg 60%
    14:00 +35°C° 1.6 mm 3 mps 751 mmHg 59%
    15:00 +34°C° 0.5 mm 2 mps 751 mmHg 62%
    16:00 +34°C° 0.5 mm 2 mps 751 mmHg 65%
    17:00 +32°C° 0.5 mm 1 mps 751 mmHg 69%
    18:00 +31°C° 0.4 mm 2 mps 751 mmHg 75%
    19:00 +29°C° 0.4 mm 2 mps 752 mmHg 81%
    20:00 +27°C° 0.4 mm 2 mps 752 mmHg 87%
    21:00 +27°C° 0.1 mm 2 mps 752 mmHg 89%
    22:00 +26°C° 0.1 mm 3 mps 752 mmHg 91%
    23:00 +26°C° 0.1 mm 3 mps 753 mmHg 92%

    24 September, Tuesday

    Time Temperature Precipitation Wind Pressure Humidity
    00:00 +26°C° 0 mm 3 mps 752 mmHg 93%
    01:00 +25°C° 0 mm 2 mps 752 mmHg 93%
    02:00 +25°C° 0 mm 2 mps 752 mmHg 94%
    03:00 +25°C° 0 mm 2 mps 752 mmHg 94%
    04:00 +25°C° 0 mm 1 mps 752 mmHg 94%
    05:00 +25°C° 0 mm 1 mps 752 mmHg 94%
    06:00 +26°C° 0 mm 1 mps 753 mmHg 90%
    07:00 +27°C° 0 mm 1 mps 754 mmHg 85%
    08:00 +28°C° 0 mm 1 mps 754 mmHg 81%
    09:00 +29°C° 0.1 mm 1 mps 754 mmHg 76%
    10:00 +31°C° 0.1 mm 1 mps 754 mmHg 71%
    11:00 +32°C° 0.1 mm 2 mps 754 mmHg 66%
    12:00 +34°C° 0.3 mm 2 mps 753 mmHg 62%
    13:00 +35°C° 0.3 mm 2 mps 752 mmHg 58%
    14:00 +35°C° 0.3 mm 2 mps 752 mmHg 54%
    15:00 +35°C° 0.1 mm 2 mps 752 mmHg 56%
    16:00 +35°C° 0.1 mm 2 mps 752 mmHg 57%
    17:00 +34°C° 0.1 mm 1 mps 752 mmHg 59%
    18:00 +32°C° 0 mm 1 mps 752 mmHg 63%
    19:00 +31°C° 0 mm 1 mps 752 mmHg 67%
    20:00 +29°C° 0 mm 2 mps 752 mmHg 71%
    21:00 +28°C° 0 mm 1 mps 752 mmHg 74%
    22:00 +28°C° 0 mm 1 mps 753 mmHg 78%
    23:00 +27°C° 0 mm 1 mps 753 mmHg 81%

    25 September, Wednesday

    Time Temperature Precipitation Wind Pressure Humidity
    00:00 +25°C° 0 mm 0 mps 753 mmHg 83%
    01:00 +25°C° 0 mm 0 mps 752 mmHg 84%
    02:00 +24°C° 0 mm 0 mps 752 mmHg 85%
    03:00 +24°C° 0 mm 0 mps 752 mmHg 85%
    04:00 +24°C° 0 mm 0 mps 752 mmHg 86%
    05:00 +24°C° 0 mm 0 mps 752 mmHg 86%
    06:00 +27°C° 0 mm 1 mps 753 mmHg 82%
    07:00 +28°C° 0 mm 1 mps 753 mmHg 77%
    08:00 +30°C° 0 mm 1 mps 754 mmHg 72%
    09:00 +31°C° 0 mm 2 mps 754 mmHg 65%
    10:00 +34°C° 0 mm 2 mps 754 mmHg 58%
    11:00 +36°C° 0 mm 3 mps 753 mmHg 51%
    12:00 +36°C° 0 mm 3 mps 753 mmHg 48%
    13:00 +37°C° 0 mm 2 mps 752 mmHg 46%
    14:00 +38°C° 0 mm 2 mps 751 mmHg 43%
    15:00 +37°C° 0 mm 2 mps 751 mmHg 46%
    16:00 +37°C° 0 mm 2 mps 751 mmHg 49%
    17:00 +36°C° 0 mm 2 mps 750 mmHg 52%
    18:00 +34°C° 0.1 mm 2 mps 751 mmHg 57%
    19:00 +31°C° 0.1 mm 1 mps 751 mmHg 62%
    20:00 +30°C° 0.1 mm 1 mps 751 mmHg 67%
    21:00 +29°C° 0.1 mm 1 mps 751 mmHg 71%
    22:00 +28°C° 0.1 mm 1 mps 752 mmHg 74%
    23:00 +28°C° 0.1 mm 1 mps 752 mmHg 78%
    Show more